DAL1785 TLPL-KATL

Flight info

Callsign DAL1785
Flight time N/A
Altitude 32000
Route BNE GEECE L466 MEEGL/N0478F320 Y356 DONQU Y185 CVIKK/N0474F340 Y185 MANLE Q89 SHRKS LAIRI LARZZ JJEDI4
Aircraft B739/M-SDE2E3FGHIRWXY/LB1

Departure

Time N/A
Airport Hewanorra International Airport (TLPL)

Arrival

Time 2026-05-03 23:30
Airport Hartsfield Jackson Atlanta International Airport (KATL)
Time Latitude Longitude Altitude Speed Heading
2026-05-03 22:49 30.96034 -81.96147 32122 ft 455 kts 321°
2026-05-03 22:50 30.96038 -81.96149 32122 ft 455 kts 321°
2026-05-03 22:50 31.01654 -81.99421 32122 ft 455 kts 321°
2026-05-03 22:51 31.07317 -82.02722 32126 ft 455 kts 321°
2026-05-03 22:51 31.12978 -82.06028 32121 ft 455 kts 321°
2026-05-03 22:52 31.18643 -82.09339 32120 ft 455 kts 321°
2026-05-03 22:52 31.24135 -82.12896 31901 ft 448 kts 315°
2026-05-03 22:52 31.26743 -82.14881 31673 ft 447 kts 314°
2026-05-03 22:53 31.29329 -82.16895 31432 ft 445 kts 313°
2026-05-03 22:53 31.31895 -82.18922 31213 ft 441 kts 310°
2026-05-03 22:53 31.34011 -82.21341 31131 ft 415 kts 294°
2026-05-03 22:53 31.35291 -82.24205 31114 ft 392 kts 278°
2026-05-03 22:54 31.35756 -82.27271 31122 ft 380 kts 268°
2026-05-03 22:54 31.35814 -82.33410 31102 ft 376 kts 264°
2026-05-03 22:55 31.35700 -82.39503 31105 ft 373 kts 263°
2026-05-03 22:55 31.35885 -82.45465 31100 ft 367 kts 278°
2026-05-03 22:55 31.37020 -82.48212 31110 ft 388 kts 295°
2026-05-03 22:56 31.38960 -82.50487 31117 ft 415 kts 312°
2026-05-03 22:56 31.41609 -82.52092 31120 ft 445 kts 329°
2026-05-03 22:56 31.44752 -82.52761 31104 ft 479 kts 348°
2026-05-03 22:56 31.48148 -82.52183 31120 ft 509 kts
2026-05-03 22:57 31.51410 -82.50318 31116 ft 533 kts 29°
2026-05-03 22:57 31.53304 -82.48442 31117 ft 544 kts 41°
2026-05-03 22:57 31.54210 -82.47285 31128 ft 546 kts 46°
2026-05-03 22:58 31.58762 -82.40060 31114 ft 552 kts 52°
2026-05-03 22:58 31.63289 -82.32764 31082 ft 548 kts 39°
2026-05-03 22:58 31.66290 -82.30145 31122 ft 528 kts 18°
2026-05-03 22:59 31.69661 -82.28767 31110 ft 500 kts 357°
2026-05-03 22:59 31.73044 -82.28548 31126 ft 478 kts 344°
2026-05-03 22:59 31.76292 -82.29010 31118 ft 463 kts 335°
2026-05-03 22:59 31.79337 -82.30000 31110 ft 447 kts 326°
2026-05-03 23:00 31.82053 -82.31509 31113 ft 429 kts 315°
2026-05-03 23:00 31.84471 -82.33472 31120 ft 415 kts 308°
2026-05-03 23:00 31.86534 -82.35758 31105 ft 400 kts 298°
2026-05-03 23:00 31.88126 -82.38368 31111 ft 388 kts 290°
2026-05-03 23:01 31.89471 -82.41127 31117 ft 390 kts 289°
2026-05-03 23:01 31.92163 -82.46749 31122 ft 398 kts 289°
2026-05-03 23:02 31.94968 -82.52448 31113 ft 408 kts 292°
2026-05-03 23:02 31.96664 -82.55190 31115 ft 420 kts 298°
2026-05-03 23:02 31.98689 -82.57745 31109 ft 435 kts 306°
2026-05-03 23:03 32.03316 -82.62430 31113 ft 441 kts 308°
2026-05-03 23:03 32.07993 -82.67125 31114 ft 442 kts 308°
2026-05-03 23:04 32.12639 -82.71840 31109 ft 443 kts 308°
2026-05-03 23:04 32.17303 -82.76603 31108 ft 443 kts 308°
2026-05-03 23:05 32.19856 -82.79210 31044 ft 432 kts 308°
2026-05-03 23:05 32.22133 -82.81531 30283 ft 430 kts 307°
2026-05-03 23:05 32.24387 -82.83841 29508 ft 427 kts 308°
2026-05-03 23:05 32.26625 -82.86139 28715 ft 425 kts 308°
2026-05-03 23:06 32.28816 -82.88389 27953 ft 422 kts 308°
2026-05-03 23:06 32.31028 -82.90662 27190 ft 419 kts 308°
2026-05-03 23:06 32.33218 -82.92913 26466 ft 416 kts 308°
2026-05-03 23:06 32.35394 -82.95150 25755 ft 413 kts 308°
2026-05-03 23:07 32.37559 -82.97376 25058 ft 410 kts 308°
2026-05-03 23:07 32.39701 -82.99576 24562 ft 403 kts 308°
2026-05-03 23:07 32.41787 -83.01711 24315 ft 391 kts 308°
2026-05-03 23:07 32.43842 -83.03825 24104 ft 396 kts 308°
2026-05-03 23:08 32.45951 -83.06016 23887 ft 409 kts 308°
2026-05-03 23:08 32.48125 -83.08272 23673 ft 420 kts 309°
2026-05-03 23:08 32.50324 -83.10545 23424 ft 427 kts 309°
2026-05-03 23:08 32.52574 -83.12858 23152 ft 427 kts 309°
2026-05-03 23:09 32.54807 -83.15149 22889 ft 421 kts 309°
2026-05-03 23:09 32.57014 -83.17423 22628 ft 418 kts 309°
2026-05-03 23:09 32.59200 -83.19682 22367 ft 415 kts 309°
2026-05-03 23:09 32.61368 -83.21930 22115 ft 413 kts 309°
2026-05-03 23:10 32.63512 -83.24155 21862 ft 413 kts 309°
2026-05-03 23:10 32.65676 -83.26403 21617 ft 413 kts 309°
2026-05-03 23:10 32.67836 -83.28650 21354 ft 413 kts 310°
2026-05-03 23:10 32.70000 -83.30901 21115 ft 413 kts 310°
2026-05-03 23:11 32.72160 -83.33148 20863 ft 408 kts 310°
2026-05-03 23:11 32.74268 -83.35331 20452 ft 396 kts 310°
2026-05-03 23:11 32.76332 -83.37478 19713 ft 393 kts 310°
2026-05-03 23:11 32.78357 -83.39591 19028 ft 390 kts 310°
2026-05-03 23:12 32.80417 -83.41744 18326 ft 388 kts 311°
2026-05-03 23:12 32.81754 -83.43141 17808 ft 386 kts 311°
2026-05-03 23:12 32.82528 -83.43951 17511 ft 385 kts 311°
2026-05-03 23:12 32.84536 -83.46051 16742 ft 383 kts 312°
2026-05-03 23:13 32.86533 -83.48139 15991 ft 381 kts 313°
2026-05-03 23:13 32.88517 -83.50216 15263 ft 379 kts 313°
2026-05-03 23:13 32.90491 -83.52282 14541 ft 377 kts 314°
2026-05-03 23:13 32.92462 -83.54345 13827 ft 376 kts 315°
2026-05-03 23:14 32.94423 -83.56399 13044 ft 374 kts 315°
2026-05-03 23:14 32.96363 -83.58430 12607 ft 365 kts 315°
2026-05-03 23:14 32.97613 -83.59737 12427 ft 356 kts 315°
2026-05-03 23:14 32.99445 -83.61652 12166 ft 344 kts 315°
2026-05-03 23:15 33.01219 -83.63510 11905 ft 333 kts 315°
2026-05-03 23:15 33.02938 -83.65312 11651 ft 323 kts 315°
2026-05-03 23:15 33.04583 -83.67039 11394 ft 315 kts 316°
2026-05-03 23:15 33.06221 -83.68761 11140 ft 310 kts 316°
2026-05-03 23:16 33.07853 -83.70478 11051 ft 314 kts 316°
2026-05-03 23:16 33.09473 -83.72182 11010 ft 305 kts 316°
2026-05-03 23:16 33.11037 -83.73825 10987 ft 291 kts 316°
2026-05-03 23:16 33.12496 -83.75357 10976 ft 273 kts 315°
2026-05-03 23:17 33.13882 -83.76812 10987 ft 259 kts 315°
2026-05-03 23:17 33.15247 -83.78255 10752 ft 265 kts 315°
2026-05-03 23:17 33.16634 -83.79724 10522 ft 266 kts 316°
2026-05-03 23:17 33.18023 -83.81193 10262 ft 266 kts 316°
2026-05-03 23:18 33.19398 -83.82665 9998 ft 265 kts 314°
2026-05-03 23:18 33.20709 -83.84199 9727 ft 263 kts 313°
2026-05-03 23:18 33.21993 -83.85744 9443 ft 262 kts 313°
2026-05-03 23:18 33.23271 -83.87285 9194 ft 260 kts 313°
2026-05-03 23:19 33.24548 -83.88817 8921 ft 259 kts 314°
2026-05-03 23:19 33.25803 -83.90318 8681 ft 258 kts 314°
2026-05-03 23:19 33.27072 -83.91827 8420 ft 257 kts 316°
2026-05-03 23:19 33.28451 -83.93123 8166 ft 256 kts 324°
2026-05-03 23:20 33.28614 -83.93258 8141 ft 256 kts 324°
2026-05-03 23:20 33.30097 -83.94445 7768 ft 257 kts 326°
2026-05-03 23:20 33.31595 -83.95624 7265 ft 257 kts 326°
2026-05-03 23:20 33.33090 -83.96807 6777 ft 257 kts 326°
2026-05-03 23:21 33.34571 -83.97990 6283 ft 256 kts 326°
2026-05-03 23:21 33.36026 -83.99159 5876 ft 252 kts 326°
2026-05-03 23:21 33.37465 -84.00323 5455 ft 249 kts 326°
2026-05-03 23:21 33.38904 -84.01492 5088 ft 250 kts 326°
2026-05-03 23:22 33.41739 -84.03804 5019 ft 245 kts 325°
2026-05-03 23:22 33.43144 -84.04953 5014 ft 243 kts 325°
2026-05-03 23:22 33.44537 -84.06095 5009 ft 242 kts 325°
2026-05-03 23:23 33.45916 -84.07225 5019 ft 243 kts 325°
2026-05-03 23:23 33.47321 -84.08377 5020 ft 245 kts 325°
2026-05-03 23:23 33.48734 -84.09537 4634 ft 247 kts 325°
2026-05-03 23:23 33.50156 -84.10706 4128 ft 248 kts 326°
2026-05-03 23:24 33.51562 -84.11860 3747 ft 243 kts 325°
2026-05-03 23:24 33.52970 -84.13018 3367 ft 244 kts 326°
2026-05-03 23:24 33.54360 -84.14160 3061 ft 239 kts 325°
2026-05-03 23:24 33.55714 -84.15277 3028 ft 234 kts 326°
2026-05-03 23:25 33.57051 -84.16380 2986 ft 232 kts 325°
2026-05-03 23:25 33.58338 -84.17438 2956 ft 222 kts 325°
2026-05-03 23:25 33.59570 -84.18451 2975 ft 207 kts 325°
2026-05-03 23:25 33.60717 -84.19395 2989 ft 193 kts 325°
2026-05-03 23:26 33.61823 -84.20305 2975 ft 193 kts 325°
2026-05-03 23:26 33.62739 -84.21467 2964 ft 196 kts 291°
2026-05-03 23:26 33.62949 -84.23052 2991 ft 189 kts 278°
2026-05-03 23:26 33.63108 -84.24524 2974 ft 169 kts 279°
2026-05-03 23:27 33.63168 -84.25872 2979 ft 158 kts 275°
2026-05-03 23:27 33.63178 -84.27196 3007 ft 160 kts 273°
2026-05-03 23:27 33.63179 -84.28549 2991 ft 163 kts 274°
2026-05-03 23:27 33.63187 -84.29905 2981 ft 160 kts 275°
2026-05-03 23:28 33.63194 -84.31248 2824 ft 159 kts 274°
2026-05-03 23:28 33.63193 -84.32540 2599 ft 151 kts 276°
2026-05-03 23:28 33.63187 -84.33764 2423 ft 145 kts 275°
2026-05-03 23:28 33.63187 -84.34964 2234 ft 143 kts 275°
2026-05-03 23:29 33.63186 -84.36175 2037 ft 147 kts 275°
2026-05-03 23:29 33.63186 -84.37385 1826 ft 142 kts 273°
2026-05-03 23:29 33.63183 -84.38545 1590 ft 140 kts 272°
2026-05-03 23:29 33.63184 -84.39702 1393 ft 137 kts 271°
2026-05-03 23:30 33.63184 -84.40835 1172 ft 136 kts 271°
2026-05-03 23:30 33.63186 -84.41956 1026 ft 132 kts 271°
2026-05-03 23:30 33.63183 -84.42964 1006 ft 99 kts 270°
2026-05-03 23:30 33.63184 -84.43524 1007 ft 25 kts 274°
2026-05-03 23:31 33.63233 -84.43643 1006 ft 0 kts 301°
2026-05-03 23:31 33.63260 -84.43699 1006 ft 17 kts 300°
2026-05-03 23:31 33.63349 -84.43700 1005 ft 16 kts 64°
2026-05-03 23:31 33.63420 -84.43615 1005 ft 16 kts 359°
2026-05-03 23:32 33.63543 -84.43602 1005 ft 18 kts 15°
2026-05-03 23:32 33.63583 -84.43479 1005 ft 17 kts 84°
2026-05-03 23:32 33.63675 -84.43421 1005 ft 16 kts
2026-05-03 23:32 33.63779 -84.43449 1005 ft 16 kts 306°
2026-05-03 23:33 33.63792 -84.43537 1005 ft 0 kts 269°